EW8241 Weather Reports


time (UTC)temp
C
wind
direction
speed
KPH
gust
KPH
rain 1hr
cm
rain 24hr
cm
rain mn
cm
humidity
%
barometer
mb
20260507023537 15 0.0 0.0 0.00 0.00 0.00 56 1009.9
20260507022517 15 0.0 0.0 0.00 0.00 0.00 56 1009.9
20260507021537 15 0.0 0.0 0.00 0.00 0.00 55 1009.9
20260507020516 15 0.0 0.0 0.00 0.00 0.00 54 1010.0
20260507015517 15 0.0 0.0 0.00 0.00 0.00 55 1010.0
20260507014517 15 0.0 0.0 0.00 0.00 0.00 54 1010.0
20260507013536 15 0.0 0.0 0.00 0.00 0.00 55 1010.0
20260507012517 15 0.0 0.0 0.00 0.00 0.00 54 1010.1
20260507011516 15 0.0 0.0 0.00 0.00 0.00 53 1010.2
20260507010517 15 0.0 0.0 0.00 0.00 0.00 52 1010.1
20260507005516 15 0.0 0.0 0.00 0.00 0.00 52 1010.3
20260507004537 15 0.0 1.6 0.00 0.00 0.00 52 1010.4
20260507003517 16 0.0 3.2 0.00 0.00 0.00 49 1010.3
20260507002556 16 0.0 0.0 0.00 0.00 0.00 45 1010.2
20260507001517 16 0.0 6.4 0.00 0.00 0.00 43 1010.3
20260507000536 16 0.0 0.0 0.00 0.00 0.00 42 1010.4
20260506235516 16 0.0 0.0 0.00 0.00 0.00 43 1010.4
20260506234517 17 0.0 0.0 0.00 0.00 0.00 44 1010.3
20260506233516 17 0.0 0.0 0.00 0.00 0.00 44 1010.3
20260506232517 17 0.0 0.0 0.00 0.00 0.00 43 1010.2
20260506231517 16 0.0 0.0 0.00 0.00 0.00 43 1010.0
20260506230516 16 0.0 0.0 0.00 0.00 0.00 43 1010.0
20260506225516 16 0.0 0.0 0.00 0.00 0.00 42 1010.0
20260506224517 17 0.0 0.0 0.00 0.00 0.00 42 1010.1
20260506223516 17 0.0 0.0 0.00 0.00 0.00 41 1010.0
20260506222516 17 0.0 0.0 0.00 0.00 0.00 40 1009.9
20260506221517 18 0.0 0.0 0.00 0.00 0.00 38 1010.0
20260506220537 18 0.0 0.0 0.00 0.00 0.00 36 1010.0
20260506215516 17 0.0 0.0 0.00 0.00 0.00 36 1009.9
20260506214516 17 0.0 0.0 0.00 0.00 0.00 36 1010.0
20260506213516 17 0.0 0.0 0.00 0.00 0.00 35 1009.9
20260506212516 17 0.0 0.0 0.00 0.00 0.00 36 1009.9
20260506211516 17 0.0 0.0 0.00 0.00 0.00 34 1009.9
20260506210516 17 0.0 0.0 0.00 0.00 0.00 36 1009.6
20260506205516 17 0.0 0.0 0.00 0.00 0.00 36 1009.5
20260506204516 17 0.0 0.0 0.00 0.00 0.00 35 1009.4
20260506203516 17 0.0 0.0 0.00 0.00 0.00 35 1009.4
20260506202516 17 0.0 0.0 0.00 0.00 0.00 35 1009.4
20260506201516 17 0.0 0.0 0.00 0.00 0.00 35 1009.2
20260506200516 17 0.0 0.0 0.00 0.00 0.00 35 1009.2
20260506195516 17 0.0 0.0 0.00 0.00 0.00 35 1009.1
20260506194516 17 0.0 0.0 0.00 0.00 0.00 35 1009.0
20260506193516 18 0.0 0.0 0.00 0.00 0.00 36 1008.9
20260506192516 18 0.0 0.0 0.00 0.00 0.00 37 1008.9
20260506191516 18 0.0 0.0 0.00 0.00 0.00 37 1008.8
20260506190516 19 0.0 0.0 0.00 0.00 0.00 34 1008.8
20260506185516 20 0.0 0.0 0.00 0.00 0.00 32 1008.7
20260506184536 20 0.0 0.0 0.00 0.00 0.00 31 1008.7
20260506183516 20 0.0 0.0 0.00 0.00 0.00 32 1008.8
20260506182516 20 0.0 0.0 0.00 0.00 0.00 32 1008.4
20260506181516 21 0.0 0.0 0.00 0.00 0.00 32 1008.6
20260506180536 21 0.0 0.0 0.00 0.00 0.00 31 1008.6
20260506175516 21 0.0 0.0 0.00 0.00 0.00 32 1008.5
20260506174516 21 0.0 1.6 0.00 0.00 0.00 31 1008.5
20260506173516 21 0.0 1.6 0.00 0.00 0.00 31 1008.6
20260506172516 21 0.0 0.0 0.00 0.00 0.00 31 1008.7
20260506171516 21 0.0 0.0 0.00 0.00 0.00 31 1008.7
20260506170516 22 0.0 0.0 0.00 0.00 0.00 29 1008.8
20260506165516 22 0.0 1.6 0.00 0.00 0.00 30 1008.9
20260506164516 22 0.0 0.0 0.00 0.00 0.00 30 1008.9
20260506163516 22 0.0 0.0 0.00 0.00 0.00 30 1008.9
20260506162536 22 0.0 1.6 0.00 0.00 0.00 30 1009.0
20260506161516 22 0.0 0.0 0.00 0.00 0.00 29 1009.0
20260506160516 23 0.0 1.6 0.00 0.00 0.00 29 1009.1
20260506155516 23 0.0 0.0 0.00 0.00 0.00 29 1009.0
20260506154516 23 0.0 3.2 0.00 0.00 0.00 30 1009.2
20260506153516 22 0.0 0.0 0.00 0.00 0.00 30 1009.1
20260506152516 22 0.0 0.0 0.00 0.00 0.00 30 1009.3
20260506151516 23 0.0 0.0 0.00 0.00 0.00 29 1009.3
20260506150516 23 0.0 0.0 0.00 0.00 0.00 30 1009.5
20260506145516 22 0.0 0.0 0.00 0.00 0.00 32 1009.6
20260506144516 22 0.0 0.0 0.00 0.00 0.00 31 1009.6
20260506143516 22 0.0 1.6 0.00 0.00 0.00 30 1009.8
20260506142516 23 0.0 0.0 0.00 0.00 0.00 30 1010.1
20260506141516 23 0.0 0.0 0.00 0.00 0.00 30 1010.2
20260506140516 22 0.0 0.0 0.00 0.00 0.00 31 1010.1
20260506135516 23 0.0 0.0 0.00 0.00 0.00 30 1010.3
20260506134516 22 0.0 0.0 0.00 0.00 0.00 32 1010.4
20260506133515 22 0.0 0.0 0.00 0.00 0.00 31 1010.5
20260506132516 23 0.0 0.0 0.00 0.00 0.00 30 1010.6
20260506131535 23 0.0 0.0 0.00 0.00 0.00 30 1010.7
20260506130516 23 0.0 0.0 0.00 0.00 0.00 31 1010.6
20260506125516 23 0.0 0.0 0.00 0.00 0.00 31 1010.9
20260506124516 23 0.0 0.0 0.00 0.00 0.00 31 1010.9
20260506123516 23 0.0 0.0 0.00 0.00 0.00 31 1011.0
20260506122535 22 0.0 0.0 0.00 0.00 0.00 32 1010.9
20260506121516 22 0.0 0.0 0.00 0.00 0.00 32 1010.9
20260506120516 21 0.0 0.0 0.00 0.00 0.00 32 1011.0
20260506115516 22 0.0 0.0 0.00 0.00 0.00 33 1011.2
20260506114515 21 0.0 0.0 0.00 0.00 0.00 33 1011.2
20260506113515 21 0.0 0.0 0.00 0.00 0.00 32 1011.4
20260506112516 21 0.0 0.0 0.00 0.00 0.00 32 1011.6
20260506111515 21 0.0 0.0 0.00 0.00 0.00 31 1011.6
20260506110516 21 0.0 0.0 0.00 0.00 0.00 32 1011.8
20260506105515 21 0.0 0.0 0.00 0.00 0.00 31 1011.9
20260506104516 21 0.0 0.0 0.00 0.00 0.00 31 1012.0
20260506103515 21 0.0 0.0 0.00 0.00 0.00 33 1012.0
20260506102516 21 0.0 0.0 0.00 0.00 0.00 36 1012.2
20260506101516 20 0.0 0.0 0.00 0.00 0.00 37 1012.1
20260506100516 20 0.0 0.0 0.00 0.00 0.00 36 1012.2
20260506095515 20 0.0 0.0 0.00 0.00 0.00 37 1012.3
20260506094515 19 0.0 0.0 0.00 0.00 0.00 39 1012.1
20260506093515 19 0.0 0.0 0.00 0.00 0.00 39 1012.1
20260506092516 19 0.0 0.0 0.00 0.00 0.00 40 1012.1
20260506091515 18 0.0 0.0 0.00 0.00 0.00 42 1012.1
20260506090516 18 0.0 0.0 0.00 0.00 0.00 42 1012.1
20260506085516 17 0.0 0.0 0.00 0.00 0.00 45 1012.1
20260506084515 18 0.0 0.0 0.00 0.00 0.00 46 1012.2
20260506083516 17 0.0 0.0 0.00 0.00 0.00 47 1012.0
20260506082515 17 0.0 0.0 0.00 0.00 0.00 46 1012.0
20260506081516 17 0.0 0.0 0.00 0.00 0.00 45 1012.1
20260506080515 17 0.0 0.0 0.00 0.00 0.00 45 1012.0
20260506073515 16 0.0 0.0 0.00 0.00 0.00 48 1012.0
20260506072515 16 0.0 0.0 0.00 0.00 0.00 47 1012.0
20260506071515 16 0.0 0.0 0.00 0.00 0.00 47 1012.0
20260506070516 16 0.0 0.0 0.00 0.00 0.00 48 1012.0
20260506062517 14 0.0 0.0 0.00 0.00 0.00 52 1011.9
20260506061517 13 0.0 0.0 0.00 0.00 0.00 57 1011.8
20260506060517 12 0.0 0.0 0.00 0.00 0.00 61 1011.5
20260506050517 10 0.0 0.0 0.00 0.00 0.00 62 1011.4
20260506044517 11 0.0 0.0 0.00 0.00 0.00 61 1011.3
20260506043537 11 0.0 0.0 0.00 0.00 0.00 60 1011.3
20260506042517 11 0.0 0.0 0.00 0.00 0.00 60 1011.5
20260506041517 11 0.0 0.0 0.00 0.00 0.00 60 1011.5
20260506040517 11 0.0 0.0 0.00 0.00 0.00 60 1011.5
20260506035517 11 0.0 0.0 0.00 0.00 0.00 60 1011.7
20260506034517 11 0.0 0.0 0.00 0.00 0.00 60 1011.8
20260506033517 11 0.0 0.0 0.00 0.00 0.00 60 1011.8
20260506032517 11 0.0 0.0 0.00 0.00 0.00 60 1011.9
20260506031517 11 0.0 0.0 0.00 0.00 0.00 59 1011.9
20260506030517 11 0.0 0.0 0.00 0.00 0.00 58 1011.9
20260506025537 11 0.0 0.0 0.00 0.00 0.00 58 1012.0
20260506024517 12 0.0 0.0 0.00 0.00 0.00 57 1012.1